Preview of NWS' New Version of Forecast
This preview is not operational and should not be used for support decisions.

Regional Weather Roundup (RWR)

Issued by National Weather Service (NWS)

                            
000
ASUS43 KTOP 250459
RWRKS 

WEATHER ROUNDUP FOR KANSAS
NATIONAL WEATHER SERVICE GOODLAND KS
1200 AM CDT SUN AUG 25 2019

NOTE:  "FAIR" INDICATES FEW OR NO CLOUDS BELOW 12,000 FEET WITH NO
SIGNIFICANT WEATHER AND/OR OBSTRUCTIONS TO VISIBILITY.

KSZ001>006-013>018-027>032-041>047-250600-
NORTHWEST KANSAS
  
CITY           SKY/WX    TMP DP  RH WIND       PRES   REMARKS
GOODLAND       FAIR      64  62  93 SE3       29.96S                  
HAYS           FOG       60  59  96 N21G43    29.69F THUNDER VSB 3/4  
HILL CITY      MOCLDY    63  59  87 CALM      29.95R                  
RUSSELL        TSTM      61  58  90 N24G43    29.94R FOG              
$$

KSZ061>065-074>080-084>089-250600-
SOUTHWEST KANSAS
  
CITY           SKY/WX    TMP DP  RH WIND       PRES   REMARKS
DODGE CITY     CLEAR     73  71  93 SE20G26   29.92F                  
GARDEN CITY    CLEAR     71  67  87 SE8       29.93S                  
GREAT BEND     TSTM      73  71  93 E7        29.93S                  
LIBERAL        CLEAR     75  67  76 SE12      29.94F                  
$$

KSZ066>073-081>083-090>101-250600-
SOUTHEAST KANSAS
  
CITY           SKY/WX    TMP DP  RH WIND       PRES   REMARKS
CHANUTE        CLOUDY    72  67  84 E9        29.99F                  
COFFEYVILLE    CLOUDY    73  69  87 E9        29.96F                  
HUTCHINSON     CLOUDY    72  69  90 E14       29.94S                  
MEDICINE LODGE   N/A     75  72  90 E7        29.92R                  
NEWTON         CLOUDY    69  67  93 E12       29.97R                  
PARSONS        CLOUDY    72  70  93 VRB3      29.99F                  
WICHITA INTL   CLOUDY    73  69  87 SE15      29.92F                  
WICHITA JABRA  CLOUDY    71  69  93 SE14G20   29.93F                  
WICHITA MCCONL CLOUDY    72  67  84 E17G24    29.92F                  
WINFIELD       CLOUDY    73  70  90 E13       29.95F                  
$$

KSZ007>012-019>026-033>040-048>060-102>105-250600-
NORTHEAST KANSAS
  
CITY           SKY/WX    TMP DP  RH WIND       PRES   REMARKS
CONCORDIA      LGT RAIN  69  67  93 SE15      29.93F                  
EMPORIA        CLOUDY    68  67  96 E9        29.99S                  
LAWRENCE       CLOUDY    70  63  78 SE5       30.02F                  
MANHATTAN      LGT RAIN  69  65  86 W6        30.01R                  
OLATHE IND     CLOUDY    69  62  78 E8        30.03F                  
OLATHE EXE     CLOUDY    68  63  84 SE9       30.03F                  
SALINA         LGT RAIN  68  66  93 E18G29    29.93F                  
TOPEKA BILLARD CLOUDY    69  62  78 E6        30.00F                  
TOPEKA FORBES  CLOUDY    69  62  78 E7        30.01F                  
$$